Location: East Horndon
(51.5667°N, 0.3500°E)
Time: 00:03:17
(UTC+00:00)

Cosmos 2123 Rocket - Visible Passes

Search period start: 16 February 2026 00:00
Search period end: 26 February 2026 00:00
Orbit: 961 x 991 km, 82.9° (Epoch: 15 February)

Date Brightness Start Highest point End Pass type
(mag) Time Alt. Az. Time Alt. Az. Time Alt. Az.
16 Feb 5.9 02:42:59 10° N 02:47:59 25° ENE 02:52:57 10° ESE visible
16 Feb 3.8 04:27:50 10° NNW 04:34:04 74° W 04:40:14 10° S visible
16 Feb 5.4 06:15:12 10° NW 06:18:21 14° WNW 06:21:28 10° WSW visible
16 Feb 5.1 18:03:32 10° SSW 18:09:38 49° WNW 18:15:44 10° N visible
16 Feb 6.9 19:54:46 10° WNW 19:56:45 11° NW 19:58:43 10° NNW visible
17 Feb 5.2 03:08:04 10° N 03:13:53 38° ENE 03:19:36 10° SE visible
17 Feb 4.2 04:53:30 10° NNW 04:59:23 45° W 05:05:11 10° SSW visible
17 Feb 5.9 18:29:52 10° SW 18:35:24 31° WNW 18:40:57 10° N visible
18 Feb 6.6 01:49:34 10° NNE 01:52:43 14° NE 01:55:51 10° E visible
18 Feb 4.3 03:33:22 10° N 03:39:33 62° ENE 03:45:40 10° SSE visible
18 Feb 4.8 05:19:25 10° NNW 05:24:31 27° W 05:29:35 10° SW visible
18 Feb 6.5 18:56:49 10° WSW 19:01:21 20° WNW 19:05:54 10° NNW visible
19 Feb 6.0 02:14:07 10° N 02:18:50 22° ENE 02:21:15 18° E visible
19 Feb 3.8 03:58:49 10° NNW 04:05:04 83° W 04:05:46 71° SSW visible
19 Feb 5.3 05:45:48 10° NW 05:49:29 17° WNW 05:50:17 16° W visible
19 Feb 6.8 19:24:46 10° WNW 19:27:31 13° NW 19:30:15 10° NNW visible
20 Feb 5.3 02:39:08 10° N 02:44:45 34° ENE 02:45:06 34° ENE visible
20 Feb 4.2 04:24:25 10° NNW 04:29:42 48° WNW 04:29:42 48° WNW visible
20 Feb 5.7 18:00:34 10° SW 18:06:17 35° WNW 18:12:00 10° N visible
21 Feb 6.6 01:21:00 10° NNE 01:23:29 12° NE 01:24:56 12° ENE visible
21 Feb 4.7 03:04:22 10° N 03:09:33 50° NE 03:09:33 50° NE visible
21 Feb 4.9 04:50:15 10° NNW 04:54:10 28° WNW 04:54:10 28° WNW visible
21 Feb 6.4 18:27:22 10° WSW 18:32:12 23° WNW 18:37:01 10° N visible
22 Feb 6.1 01:45:16 10° NNE 01:49:37 20° ENE 01:49:37 20° ENE visible
22 Feb 4.5 03:29:47 10° N 03:34:15 50° N 03:34:15 50° N visible
22 Feb 5.4 05:16:28 10° NW 05:18:52 17° WNW 05:18:52 17° WNW visible
22 Feb 6.7 18:54:58 10° W 18:58:18 14° NW 19:01:37 10° NNW visible
23 Feb 5.7 02:10:12 10° N 02:14:27 28° NE 02:14:27 28° NE visible
23 Feb 4.8 03:55:21 10° NNW 03:59:04 36° NNW 03:59:04 36° NNW visible
24 Feb 6.6 00:52:42 10° NE 00:54:15 11° NE 00:54:44 11° NE visible
24 Feb 5.2 02:35:24 10° N 02:39:22 36° NNE 02:39:22 36° NNE visible
24 Feb 5.2 04:21:07 10° NNW 04:24:00 25° NW 04:24:00 25° NW visible
24 Feb 6.3 17:57:57 10° WSW 18:03:02 25° WNW 18:08:07 10° N visible
25 Feb 6.3 01:16:28 10° NNE 01:19:43 17° NE 01:19:43 17° NE visible
25 Feb 5.0 03:00:46 10° N 03:04:22 37° N 03:04:22 37° N visible
25 Feb 5.6 04:47:11 10° NNW 04:49:00 16° NW 04:49:00 16° NW visible
25 Feb 6.6 18:25:18 10° W 18:29:05 16° NW 18:32:52 10° NNW visible
